sat.trackr.live / text

‹ back to catalog

ICEYE-X65

NORAD 66300 · 2025-248H

PAYLOAD ACTIVE UNKNOWN

§ Identity

Operator
Country
UAE
Launch date
2025-11-02
Launch site
AFETR
Launch vehicle
Mass (kg)
RCS (m²)

External: N2YO · Heavens-Above · Gunter

§ Orbital elements

Epoch: 2026-09-20T22:33:25.533504Z

Period
95.48 min
Inclination
45.4061°
Eccentricity
0.0005625
Mean motion
15.08211609 rev/d
Perigee alt
537.8 km
Apogee alt
545.6 km
Semi-major
6,919.8 km
B*
1.2237e-4
RAAN
350.5611°
Arg perigee
214.2804°
Mean anomaly
145.7715°
Rev number
4,997

§ Raw data

ICEYE-X651 66300U 25248H   26263.93987886  .00001674  00000+0  12237-3 0  99982 66300  45.4061 350.5611 0005625 214.2804 145.7715 15.08211609 49979

JSON: /api/v1/satellites/66300 · /tle

For live sub-satellite position, see the globe view (requires WebGL).

§ Visibility from observer

Set your observer location to see the next 7 days of passes ≥ 10°. The values pass through the URL so the page stays shareable.

No JS? Fill the form by hand. The geolocation button needs JavaScript.